GSAT0103 (GALILEO-FM3)

Last updated on Wed Jul 09 2025 00:02:32 GMT+0000 (Coordinated Universal Time)

1 38857U 12055A 25188.56272699 -.00000019 00000+0 00000+0 0 9993 2 38857 55.5991 111.0125 0004195 295.7741 64.1644 1.70473595 79138
UTC large
Height (km)
Speed (km/s)
/
Latitude / Longitude
Inclination (degrees)
Orbital Period (minutes)
Azimuth
Elevation
Range (km)
Doppler Factor

Next 0 passes for location: London (51.5072 / 0.1276)

Sorry there are no passes over London.